TimeEST,TemperatureF,Dew PointF,Humidity,Sea Level PressureIn,VisibilityMPH,Wind Direction,Wind SpeedMPH,Gust SpeedMPH,PrecipitationIn,Events,Conditions,WindDirDegrees,DateUTC
12:51 AM,33.1,24.1,70,30.29,10.0,West,5.8,-,N/A,,Mostly Cloudy,260,2012-12-07 05:51:00
1:51 AM,35.1,28.0,76,30.29,10.0,WSW,9.2,-,N/A,,Mostly Cloudy,250,2012-12-07 06:51:00
2:51 AM,35.1,28.0,76,30.28,10.0,WNW,4.6,-,N/A,,Mostly Cloudy,290,2012-12-07 07:51:00
3:51 AM,33.1,26.1,75,30.26,10.0,Calm,Calm,-,N/A,,Mostly Cloudy,0,2012-12-07 08:51:00
4:05 AM,30.2,24.8,80,30.25,10.0,Calm,Calm,-,N/A,,Mostly Cloudy,0,2012-12-07 09:05:00
4:51 AM,35.1,28.9,78,30.25,10.0,SW,6.9,-,N/A,,Overcast,230,2012-12-07 09:51:00
5:36 AM,35.6,30.2,81,30.24,10.0,SSW,4.6,-,N/A,,Scattered Clouds,210,2012-12-07 10:36:00
5:51 AM,36.0,30.0,79,30.23,10.0,SSW,3.5,-,N/A,,Overcast,210,2012-12-07 10:51:00
6:51 AM,33.1,27.0,78,30.23,10.0,Calm,Calm,-,N/A,,Mostly Cloudy,0,2012-12-07 11:51:00
7:51 AM,35.1,30.0,82,30.23,10.0,NE,3.5,-,N/A,,Mostly Cloudy,50,2012-12-07 12:51:00
8:51 AM,37.9,32.0,79,30.23,10.0,East,3.5,-,N/A,,Overcast,80,2012-12-07 13:51:00
9:51 AM,41.0,34.0,76,30.22,10.0,ENE,3.5,-,0.00,Rain,Light Rain,60,2012-12-07 14:51:00
10:51 AM,44.1,37.0,76,30.20,10.0,Calm,Calm,-,0.00,Rain,Light Rain,0,2012-12-07 15:51:00
11:51 AM,46.0,41.0,83,30.18,9.0,SSW,6.9,-,0.00,Rain,Light Rain,200,2012-12-07 16:51:00
12:51 PM,46.0,42.1,86,30.15,8.0,SSW,6.9,-,0.02,Rain,Light Rain,210,2012-12-07 17:51:00
1:51 PM,46.0,41.0,83,30.13,9.0,South,10.4,-,0.02,Rain,Light Rain,190,2012-12-07 18:51:00
2:51 PM,46.0,41.0,83,30.12,10.0,South,9.2,-,0.02,,Overcast,190,2012-12-07 19:51:00
3:33 PM,46.4,42.8,87,30.11,10.0,South,8.1,-,N/A,,Overcast,180,2012-12-07 20:33:00
3:51 PM,46.0,41.0,83,30.11,10.0,SSW,10.4,-,N/A,,Overcast,200,2012-12-07 20:51:00
4:46 PM,46.4,42.8,87,30.10,10.0,SW,5.8,-,0.00,,Overcast,220,2012-12-07 21:46:00
4:51 PM,46.0,42.1,86,30.11,10.0,SW,5.8,-,0.00,Rain,Light Rain,220,2012-12-07 21:51:00
5:51 PM,46.0,43.0,89,30.09,9.0,SSW,5.8,-,0.00,Rain,Light Rain,200,2012-12-07 22:51:00
6:36 PM,46.4,42.8,87,30.09,10.0,SSW,4.6,-,0.01,Rain,Light Rain,210,2012-12-07 23:36:00
6:51 PM,46.0,43.0,89,30.09,10.0,SSW,8.1,-,0.01,Rain,Light Rain,200,2012-12-07 23:51:00
7:47 PM,46.4,44.6,93,30.09,10.0,SSW,8.1,-,0.02,,Overcast,200,2012-12-08 00:47:00
7:51 PM,46.0,44.1,93,30.09,10.0,SSW,8.1,-,0.02,,Overcast,200,2012-12-08 00:51:00
8:51 PM,46.9,44.1,90,30.09,9.0,WSW,5.8,-,N/A,,Overcast,240,2012-12-08 01:51:00
9:51 PM,46.0,44.1,93,30.08,5.0,WSW,3.5,-,0.00,Rain,Light Rain,240,2012-12-08 02:51:00
10:16 PM,46.4,44.6,93,30.06,5.0,Calm,Calm,-,0.01,,Overcast,0,2012-12-08 03:16:00
10:51 PM,46.0,45.0,96,30.05,5.0,Calm,Calm,-,0.01,,Light Drizzle,0,2012-12-08 03:51:00
11:30 PM,46.4,44.6,93,30.05,2.0,Calm,Calm,-,0.00,Rain,Light Rain,0,2012-12-08 04:30:00
11:51 PM,46.0,45.0,96,30.04,1.5,Calm,Calm,-,0.01,Rain,Light Rain,0,2012-12-08 04:51:00